CES9254 ZSNJ-VHHH

Flight info

Callsign CES9254
Flight time N/A
Altitude 38100
Route TES52X TESIG A470 BEBEM/N0460F381 A470 DOTMI/N0460F380 V512 ABBEY
Aircraft A20N/M-SDE2E3FGHIRWXY/LB1

Departure

Time 2026-05-09 11:17
Airport Nanjing Lukou International Airport (ZSNJ)

Arrival

Time N/A
Airport Hong Kong International Airport (VHHH)
Time Latitude Longitude Altitude Speed Heading
2026-05-09 10:35 31.73113 118.87146 54 ft 0 kts 328°
2026-05-09 11:06 31.73097 118.87158 52 ft 4 kts 326°
2026-05-09 11:06 31.73075 118.87176 52 ft 4 kts 321°
2026-05-09 11:07 31.73055 118.87197 57 ft 4 kts 311°
2026-05-09 11:07 31.73041 118.87221 57 ft 4 kts 277°
2026-05-09 11:07 31.73041 118.87236 55 ft 1 kts 238°
2026-05-09 11:09 31.73040 118.87234 61 ft 2 kts 238°
2026-05-09 11:09 31.73021 118.87199 53 ft 9 kts 238°
2026-05-09 11:10 31.72977 118.87116 56 ft 15 kts 238°
2026-05-09 11:10 31.72908 118.86989 55 ft 21 kts 237°
2026-05-09 11:10 31.72819 118.86823 56 ft 26 kts 239°
2026-05-09 11:10 31.72740 118.86674 55 ft 12 kts 242°
2026-05-09 11:11 31.72766 118.86599 58 ft 11 kts 326°
2026-05-09 11:11 31.72828 118.86552 57 ft 11 kts 326°
2026-05-09 11:11 31.72888 118.86506 56 ft 10 kts 329°
2026-05-09 11:11 31.72949 118.86463 55 ft 10 kts 329°
2026-05-09 11:12 31.73010 118.86418 56 ft 10 kts 327°
2026-05-09 11:12 31.73070 118.86372 57 ft 10 kts 328°
2026-05-09 11:12 31.73131 118.86328 55 ft 10 kts 328°
2026-05-09 11:12 31.73192 118.86283 59 ft 10 kts 327°
2026-05-09 11:13 31.73251 118.86238 58 ft 10 kts 327°
2026-05-09 11:13 31.73312 118.86193 59 ft 12 kts 327°
2026-05-09 11:13 31.73394 118.86133 55 ft 17 kts 328°
2026-05-09 11:13 31.73509 118.86048 53 ft 23 kts 328°
2026-05-09 11:14 31.73655 118.85941 60 ft 24 kts 328°
2026-05-09 11:14 31.73772 118.85854 59 ft 14 kts 322°
2026-05-09 11:14 31.73771 118.85754 53 ft 16 kts 237°
2026-05-09 11:14 31.73725 118.85670 56 ft 21 kts 237°
2026-05-09 11:15 31.73595 118.85429 52 ft 31 kts 237°
2026-05-09 11:15 31.73516 118.85282 55 ft 34 kts 238°
2026-05-09 11:15 31.73380 118.85028 58 ft 38 kts 237°
2026-05-09 11:15 31.73281 118.84843 56 ft 21 kts 238°
2026-05-09 11:16 31.73229 118.84718 61 ft 14 kts 280°
2026-05-09 11:16 31.73296 118.84649 60 ft 13 kts 329°
2026-05-09 11:16 31.73364 118.84617 58 ft 5 kts 28°
2026-05-09 11:16 31.73466 118.84793 57 ft 61 kts 58°
2026-05-09 11:17 31.73806 118.85432 56 ft 124 kts 59°
2026-05-09 11:17 31.74340 118.86441 102 ft 167 kts 58°
2026-05-09 11:17 31.74983 118.87645 458 ft 179 kts 58°
2026-05-09 11:17 31.75705 118.88878 972 ft 189 kts 60°
2026-05-09 11:18 31.76438 118.90253 1517 ft 207 kts 62°
2026-05-09 11:18 31.77239 118.91797 1967 ft 233 kts 62°
2026-05-09 11:18 31.78096 118.93432 2805 ft 241 kts 61°
2026-05-09 11:18 31.79002 118.95140 3747 ft 246 kts 61°
2026-05-09 11:19 31.79831 118.96829 4615 ft 251 kts 69°
2026-05-09 11:19 31.80194 118.98803 5514 ft 252 kts 95°
2026-05-09 11:19 31.79709 119.00762 6441 ft 252 kts 124°
2026-05-09 11:19 31.78448 119.02176 7275 ft 254 kts 154°
2026-05-09 11:20 31.76745 119.02659 8149 ft 255 kts 184°
2026-05-09 11:20 31.75024 119.02181 9039 ft 258 kts 202°
2026-05-09 11:20 31.73127 119.01217 10075 ft 263 kts 206°
2026-05-09 11:20 31.71681 119.00438 10804 ft 267 kts 206°
2026-05-09 11:21 31.70030 118.99477 11613 ft 271 kts 214°
2026-05-09 11:21 31.68638 118.98035 12416 ft 273 kts 229°
2026-05-09 11:21 31.67344 118.96392 13182 ft 281 kts 226°
2026-05-09 11:21 31.65788 118.94896 13544 ft 306 kts 213°
2026-05-09 11:22 31.63772 118.93848 13849 ft 331 kts 196°
2026-05-09 11:22 31.61392 118.93530 14117 ft 355 kts 178°
2026-05-09 11:22 31.58907 118.94134 14394 ft 377 kts 159°
2026-05-09 11:22 31.56625 118.95733 14868 ft 389 kts 139°
2026-05-09 11:23 31.54880 118.98170 15506 ft 396 kts 120°
2026-05-09 11:23 31.53655 119.01089 16177 ft 400 kts 113°
2026-05-09 11:23 31.52557 119.04116 16828 ft 406 kts 112°
2026-05-09 11:23 31.51877 119.06017 17206 ft 409 kts 112°
2026-05-09 11:24 31.50751 119.09143 17853 ft 414 kts 112°
2026-05-09 11:24 31.49476 119.12139 18433 ft 419 kts 123°
2026-05-09 11:24 31.47517 119.14691 18959 ft 424 kts 140°
2026-05-09 11:24 31.45182 119.16833 19486 ft 428 kts 144°
2026-05-09 11:25 31.42771 119.18903 20029 ft 432 kts 146°
2026-05-09 11:25 31.40327 119.20991 20558 ft 437 kts 146°
2026-05-09 11:25 31.37850 119.23117 21093 ft 442 kts 146°
2026-05-09 11:25 31.35361 119.25262 21626 ft 447 kts 146°
2026-05-09 11:26 31.32855 119.27426 22143 ft 451 kts 147°
2026-05-09 11:26 31.30309 119.29626 22663 ft 456 kts 147°
2026-05-09 11:26 31.27770 119.31821 23169 ft 461 kts 147°
2026-05-09 11:26 31.25180 119.34059 23663 ft 465 kts 147°
2026-05-09 11:27 31.22562 119.36321 24094 ft 469 kts 147°
2026-05-09 11:27 31.19934 119.38591 24522 ft 472 kts 147°
2026-05-09 11:27 31.17284 119.40881 24975 ft 475 kts 147°
2026-05-09 11:27 31.14631 119.43174 25415 ft 478 kts 147°
2026-05-09 11:28 31.11946 119.45498 25827 ft 481 kts 147°
2026-05-09 11:28 31.09263 119.47832 26306 ft 482 kts 147°
2026-05-09 11:28 31.06565 119.50189 26740 ft 485 kts 147°
2026-05-09 11:28 31.03851 119.52563 27141 ft 488 kts 147°
2026-05-09 11:29 31.01134 119.54944 27526 ft 491 kts 147°
2026-05-09 11:29 30.98397 119.57349 27904 ft 494 kts 147°
2026-05-09 11:29 30.95645 119.59770 28305 ft 496 kts 147°
2026-05-09 11:29 30.92886 119.62199 28687 ft 499 kts 147°
2026-05-09 11:30 30.90109 119.64646 29053 ft 501 kts 147°
2026-05-09 11:30 30.87367 119.67064 29523 ft 501 kts 147°
2026-05-09 11:30 30.84594 119.69518 30090 ft 499 kts 147°
2026-05-09 11:30 30.81836 119.71967 30530 ft 499 kts 147°
2026-05-09 11:31 30.79072 119.74436 30855 ft 501 kts 148°
2026-05-09 11:31 30.76321 119.76923 31182 ft 503 kts 147°
2026-05-09 11:31 30.73555 119.79439 31521 ft 505 kts 147°
2026-05-09 11:31 30.70790 119.81967 31885 ft 506 kts 147°
2026-05-09 11:32 30.68034 119.84502 32231 ft 508 kts 147°
2026-05-09 11:32 30.65246 119.87082 32551 ft 510 kts 147°
2026-05-09 11:32 30.62482 119.89653 32903 ft 511 kts 148°
2026-05-09 11:32 30.59670 119.92142 33233 ft 510 kts 150°
2026-05-09 11:33 30.56792 119.94548 33564 ft 510 kts 152°
2026-05-09 11:33 30.53877 119.96915 33884 ft 510 kts 153°
2026-05-09 11:33 30.47690 120.00403 34435 ft 488 kts 174°
2026-05-09 11:34 30.44416 120.01180 34737 ft 471 kts 185°
2026-05-09 11:34 30.41198 120.01276 35024 ft 456 kts 195°
2026-05-09 11:34 30.38116 120.00723 35300 ft 439 kts 206°
2026-05-09 11:34 30.35297 119.99579 35607 ft 423 kts 216°
2026-05-09 11:35 30.32721 119.98083 35930 ft 416 kts 219°
2026-05-09 11:35 30.30201 119.96466 36247 ft 413 kts 221°
2026-05-09 11:35 30.27728 119.94800 36562 ft 410 kts 222°
2026-05-09 11:35 30.25270 119.93118 36886 ft 409 kts 223°
2026-05-09 11:36 30.22823 119.91445 37190 ft 408 kts 223°
2026-05-09 11:36 30.20378 119.89786 37516 ft 407 kts 223°
2026-05-09 11:36 30.17921 119.88134 37801 ft 407 kts 223°
2026-05-09 11:36 30.15474 119.86500 38084 ft 406 kts 223°
2026-05-09 11:37 30.10560 119.83235 38177 ft 406 kts 223°
2026-05-09 11:37 30.05662 119.79995 38150 ft 405 kts 223°
2026-05-09 11:38 30.00782 119.76723 38173 ft 406 kts 224°
2026-05-09 11:38 29.95936 119.73461 38178 ft 406 kts 224°
2026-05-09 11:39 29.91045 119.70168 38185 ft 407 kts 224°
2026-05-09 11:40 29.82882 119.66480 38141 ft 446 kts 202°
2026-05-09 11:40 29.76583 119.65849 38188 ft 461 kts 197°
2026-05-09 11:41 29.70163 119.65487 38185 ft 462 kts 197°
2026-05-09 11:41 29.63735 119.65109 38189 ft 462 kts 197°
2026-05-09 11:42 29.57276 119.64855 38148 ft 466 kts 195°
2026-05-09 11:42 29.50848 119.64629 38191 ft 464 kts 197°
2026-05-09 11:43 29.44405 119.64253 38188 ft 463 kts 197°
2026-05-09 11:43 29.37968 119.63838 38196 ft 463 kts 197°
2026-05-09 11:44 29.31542 119.63432 38187 ft 463 kts 197°
2026-05-09 11:44 29.25091 119.63034 38191 ft 463 kts 197°
2026-05-09 11:45 29.18652 119.62640 38196 ft 463 kts 197°
2026-05-09 11:45 29.12224 119.62251 38195 ft 463 kts 197°
2026-05-09 11:46 29.05775 119.61857 38189 ft 463 kts 197°
2026-05-09 11:46 28.99360 119.61456 38194 ft 464 kts 197°
2026-05-09 11:47 28.92921 119.61054 38202 ft 464 kts 197°
2026-05-09 11:47 28.86477 119.60652 38209 ft 464 kts 197°
2026-05-09 11:48 28.80030 119.60245 38194 ft 464 kts 197°
2026-05-09 11:48 28.73563 119.59833 38219 ft 465 kts 197°
2026-05-09 11:49 28.67147 119.59443 38220 ft 465 kts 197°
2026-05-09 11:49 28.60688 119.59054 38206 ft 465 kts 197°
2026-05-09 11:50 28.54231 119.58653 38223 ft 465 kts 196°
2026-05-09 11:50 28.47774 119.58262 38223 ft 463 kts 196°
2026-05-09 11:51 28.41327 119.57886 38222 ft 465 kts 196°
2026-05-09 11:51 28.34863 119.57530 38227 ft 464 kts 196°
2026-05-09 11:52 28.28406 119.57175 38226 ft 465 kts 195°
2026-05-09 11:52 28.21939 119.56818 38233 ft 465 kts 195°
2026-05-09 11:53 28.15467 119.56461 38235 ft 465 kts 195°
2026-05-09 11:53 28.09028 119.56129 38235 ft 467 kts 194°
2026-05-09 11:54 28.02462 119.55986 38240 ft 471 kts 193°
2026-05-09 11:54 27.95933 119.55920 38249 ft 472 kts 193°
2026-05-09 11:55 27.89344 119.55862 38247 ft 473 kts 193°
2026-05-09 11:56 27.69589 119.55770 38252 ft 473 kts 193°
2026-05-09 11:57 27.63059 119.55735 38248 ft 472 kts 193°
2026-05-09 11:57 27.56479 119.55690 38236 ft 473 kts 192°
2026-05-09 11:58 27.52737 119.55664 38251 ft 475 kts 192°
2026-05-09 11:59 27.48960 119.55639 38260 ft 476 kts 192°
2026-05-09 12:00 27.42304 119.55602 38256 ft 478 kts 192°
2026-05-09 12:00 27.35643 119.55590 38256 ft 478 kts 192°
2026-05-09 12:01 27.29038 119.55585 38233 ft 478 kts 192°
2026-05-09 12:01 27.22342 119.55562 38263 ft 483 kts 192°
2026-05-09 12:02 27.16745 119.55524 38262 ft 484 kts 192°
2026-05-09 12:02 27.10001 119.55479 38259 ft 484 kts 192°
2026-05-09 12:03 27.03266 119.55437 38226 ft 484 kts 191°
2026-05-09 12:03 26.96530 119.55396 38263 ft 483 kts 191°
2026-05-09 12:04 26.89802 119.55354 38255 ft 483 kts 191°
2026-05-09 12:04 26.83075 119.55310 38255 ft 483 kts 191°
2026-05-09 12:05 26.76359 119.55266 38217 ft 483 kts 191°
2026-05-09 12:05 26.69665 119.55228 38253 ft 478 kts 191°
2026-05-09 12:06 26.63058 119.55188 38257 ft 476 kts 191°
2026-05-09 12:06 26.56419 119.55142 38254 ft 477 kts 191°
2026-05-09 12:07 26.49783 119.55098 38220 ft 476 kts 190°
2026-05-09 12:07 26.43155 119.55057 38250 ft 475 kts 190°
2026-05-09 12:08 26.36539 119.55009 38248 ft 475 kts 191°
2026-05-09 12:08 26.29930 119.54935 38244 ft 475 kts 191°
2026-05-09 12:09 26.23341 119.54730 38219 ft 466 kts 197°
2026-05-09 12:09 26.17168 119.53207 38240 ft 453 kts 206°
2026-05-09 12:10 26.05151 119.49126 38239 ft 450 kts 208°
2026-05-09 12:11 25.99164 119.47056 38255 ft 450 kts 207°
2026-05-09 12:11 25.93148 119.44997 38248 ft 454 kts 207°
2026-05-09 12:12 25.87098 119.42939 38247 ft 455 kts 207°
2026-05-09 12:12 25.81065 119.40896 38242 ft 455 kts 207°
2026-05-09 12:13 25.75242 119.38410 38233 ft 438 kts 219°
2026-05-09 12:13 25.72728 119.36584 38219 ft 426 kts 228°
2026-05-09 12:13 25.70531 119.34413 38233 ft 421 kts 233°
2026-05-09 12:14 25.66451 119.29783 38227 ft 419 kts 236°
2026-05-09 12:14 25.62485 119.25045 38228 ft 419 kts 236°
2026-05-09 12:15 25.58517 119.20323 38230 ft 419 kts 236°
2026-05-09 12:15 25.54548 119.15651 38225 ft 418 kts 236°
2026-05-09 12:16 25.50548 119.10969 38225 ft 419 kts 235°
2026-05-09 12:16 25.46525 119.06264 38223 ft 421 kts 235°
2026-05-09 12:17 25.42489 119.01548 38221 ft 421 kts 235°
2026-05-09 12:17 25.38456 118.96843 38223 ft 422 kts 235°
2026-05-09 12:18 25.34446 118.92164 38218 ft 421 kts 236°
2026-05-09 12:18 25.30474 118.87419 38215 ft 419 kts 236°
2026-05-09 12:19 25.26548 118.82645 38214 ft 420 kts 237°
2026-05-09 12:19 25.22635 118.77891 38209 ft 419 kts 236°
2026-05-09 12:20 25.18694 118.73125 38203 ft 419 kts 236°
2026-05-09 12:20 25.14751 118.68371 38207 ft 419 kts 236°
2026-05-09 12:21 25.10832 118.63653 38214 ft 420 kts 236°
2026-05-09 12:21 25.06841 118.58953 38198 ft 421 kts 235°
2026-05-09 12:22 25.02800 118.54307 38194 ft 423 kts 234°
2026-05-09 12:22 24.98708 118.49628 38188 ft 423 kts 234°
2026-05-09 12:23 24.94628 118.44962 38190 ft 423 kts 234°
2026-05-09 12:23 24.90551 118.40299 38183 ft 423 kts 235°
2026-05-09 12:24 24.86467 118.35626 38160 ft 423 kts 234°
2026-05-09 12:24 24.82372 118.30943 38183 ft 424 kts 234°
2026-05-09 12:25 24.78285 118.26271 38160 ft 424 kts 235°
2026-05-09 12:25 24.74223 118.21621 38177 ft 425 kts 234°
2026-05-09 12:26 24.70127 118.16968 38170 ft 425 kts 234°
2026-05-09 12:26 24.66020 118.12308 38171 ft 425 kts 234°
2026-05-09 12:27 24.61909 118.07642 38161 ft 426 kts 234°
2026-05-09 12:27 24.57772 118.02946 38167 ft 427 kts 234°
2026-05-09 12:28 24.53710 117.98202 38170 ft 424 kts 236°
2026-05-09 12:28 24.49782 117.93437 38172 ft 423 kts 236°
2026-05-09 12:29 24.45859 117.88661 38157 ft 423 kts 236°
2026-05-09 12:29 24.41896 117.83865 38160 ft 424 kts 236°
2026-05-09 12:30 24.37912 117.79059 38166 ft 428 kts 236°
2026-05-09 12:30 24.31886 117.71780 38180 ft 430 kts 236°